Location: Eppenbrunn
(49.1158°N, 7.5601°E)
Time: 18:02:05
(UTC+00:00)

Cosmos 921 Rocket - Pass Details

Date: 09 April 2020
Orbit: 572 x 632 km, 75.8° (Epoch: 23 May)

Event Time Altitude Azimuth Distance (km) Brightness Sun altitude
Rises 18:58:50 0° 342° (NNW) 2,792 7.1 -7.9°
Reaches altitude 10° 19:01:05 10° 347° (NNW) 1,889 6.1 -8.2°
Maximum altitude 19:05:13 58° 66° (ENE) 676 3.0 -8.8°
Drops below altitude 10° 19:09:21 10° 147° (SSE) 1,887 5.0 -9.5°
Enters shadow 19:09:44 - 148° (SSE) 2,040 5.2 -9.5°
